When you browse on this site, cookies collect data to enhance your experience and personalize the content and advertising you see.
Visit our Privacy Policy to learn more. By continuing to use the site, you agree to this use of cookies and data.
EN

Hourly Weather Rehovot

Today, 14 August, Friday

Time Temperature Precipitation Wind Pressure Humidity
00:00 +26°C° 0 mm 1 mps 750 mmHg 85%
01:00 +25°C° 0 mm 1 mps 750 mmHg 85%
02:00 +25°C° 0 mm 1 mps 750 mmHg 86%
03:00 +25°C° 0 mm 1 mps 750 mmHg 86%
04:00 +25°C° 0 mm 2 mps 750 mmHg 87%
05:00 +25°C° 0 mm 2 mps 750 mmHg 87%
06:00 +27°C° 0 mm 2 mps 750 mmHg 80%
07:00 +28°C° 0 mm 2 mps 750 mmHg 73%
08:00 +30°C° 0 mm 2 mps 750 mmHg 64%
09:00 +33°C° 0 mm 3 mps 750 mmHg 58%
10:00 +34°C° 0 mm 4 mps 750 mmHg 52%
11:00 +35°C° 0 mm 5 mps 750 mmHg 45%
12:00 +35°C° 0 mm 5 mps 749 mmHg 47%
13:00 +35°C° 0 mm 5 mps 749 mmHg 49%
14:00 +35°C° 0 mm 5 mps 748 mmHg 51%
15:00 +34°C° 0 mm 5 mps 748 mmHg 54%
16:00 +33°C° 0 mm 5 mps 748 mmHg 58%
17:00 +33°C° 0 mm 4 mps 748 mmHg 62%
18:00 +30°C° 0 mm 3 mps 748 mmHg 69%
19:00 +28°C° 0 mm 2 mps 748 mmHg 76%
20:00 +27°C° 0 mm 1 mps 748 mmHg 84%
21:00 +27°C° 0 mm 1 mps 749 mmHg 84%
22:00 +26°C° 0 mm 1 mps 749 mmHg 85%
23:00 +26°C° 0 mm 1 mps 749 mmHg 85%

Tomorrow, 15 August, Saturday

Time Temperature Precipitation Wind Pressure Humidity
00:00 +26°C° 0 mm 2 mps 748 mmHg 86%
01:00 +26°C° 0 mm 2 mps 748 mmHg 86%
02:00 +26°C° 0 mm 2 mps 748 mmHg 87%
03:00 +26°C° 0 mm 2 mps 748 mmHg 87%
04:00 +26°C° 0 mm 3 mps 748 mmHg 87%
05:00 +26°C° 0 mm 3 mps 748 mmHg 88%
06:00 +27°C° 0 mm 3 mps 748 mmHg 81%
07:00 +29°C° 0 mm 3 mps 748 mmHg 74%
08:00 +30°C° 0 mm 3 mps 748 mmHg 68%
09:00 +33°C° 0 mm 4 mps 748 mmHg 62%
10:00 +34°C° 0 mm 5 mps 749 mmHg 56%
11:00 +35°C° 0 mm 5 mps 749 mmHg 51%
12:00 +35°C° 0 mm 5 mps 748 mmHg 50%
13:00 +35°C° 0 mm 5 mps 748 mmHg 50%
14:00 +35°C° 0 mm 5 mps 748 mmHg 49%
15:00 +35°C° 0 mm 5 mps 748 mmHg 52%
16:00 +34°C° 0 mm 4 mps 748 mmHg 55%
17:00 +33°C° 0 mm 4 mps 748 mmHg 58%
18:00 +30°C° 0 mm 3 mps 748 mmHg 66%
19:00 +29°C° 0 mm 2 mps 748 mmHg 75%
20:00 +27°C° 0 mm 1 mps 748 mmHg 83%
21:00 +26°C° 0 mm 1 mps 748 mmHg 83%
22:00 +26°C° 0 mm 1 mps 748 mmHg 84%
23:00 +26°C° 0 mm 1 mps 748 mmHg 84%

Day after tomorrow, 16 August, Sunday

Time Temperature Precipitation Wind Pressure Humidity
00:00 +25°C° 0 mm 1 mps 748 mmHg 84%
01:00 +25°C° 0 mm 1 mps 748 mmHg 84%
02:00 +25°C° 0 mm 1 mps 747 mmHg 84%
03:00 +25°C° 0 mm 2 mps 747 mmHg 84%
04:00 +25°C° 0 mm 2 mps 748 mmHg 84%
05:00 +24°C° 0 mm 2 mps 748 mmHg 85%
06:00 +26°C° 0 mm 2 mps 748 mmHg 78%
07:00 +28°C° 0 mm 2 mps 748 mmHg 71%
08:00 +30°C° 0 mm 3 mps 749 mmHg 64%
09:00 +33°C° 0 mm 3 mps 749 mmHg 55%
10:00 +35°C° 0 mm 4 mps 749 mmHg 47%
11:00 +36°C° 0 mm 4 mps 749 mmHg 39%
12:00 +36°C° 0 mm 5 mps 748 mmHg 40%
13:00 +36°C° 0 mm 5 mps 748 mmHg 41%
14:00 +36°C° 0 mm 5 mps 748 mmHg 42%
15:00 +35°C° 0 mm 5 mps 748 mmHg 44%
16:00 +35°C° 0 mm 4 mps 748 mmHg 47%
17:00 +34°C° 0 mm 4 mps 748 mmHg 49%
18:00 +31°C° 0 mm 3 mps 748 mmHg 59%
19:00 +29°C° 0 mm 2 mps 749 mmHg 69%
20:00 +26°C° 0 mm 1 mps 749 mmHg 79%
21:00 +26°C° 0 mm 1 mps 749 mmHg 78%
22:00 +26°C° 0 mm 1 mps 749 mmHg 78%
23:00 +25°C° 0 mm 1 mps 748 mmHg 78%

17 August, Monday

Time Temperature Precipitation Wind Pressure Humidity
00:00 +25°C° 0 mm 1 mps 748 mmHg 76%
01:00 +25°C° 0 mm 1 mps 748 mmHg 74%
02:00 +22°C° 0 mm 0 mps 748 mmHg 73%
03:00 +24°C° 0 mm 1 mps 748 mmHg 74%
04:00 +24°C° 0 mm 1 mps 748 mmHg 76%
05:00 +24°C° 0 mm 1 mps 749 mmHg 78%
06:00 +26°C° 0 mm 1 mps 749 mmHg 71%
07:00 +28°C° 0 mm 2 mps 749 mmHg 64%
08:00 +30°C° 0 mm 2 mps 750 mmHg 57%
09:00 +33°C° 0 mm 3 mps 749 mmHg 51%
10:00 +34°C° 0 mm 3 mps 749 mmHg 46%
11:00 +36°C° 0 mm 4 mps 749 mmHg 40%
12:00 +36°C° 0 mm 5 mps 749 mmHg 42%
13:00 +36°C° 0 mm 5 mps 749 mmHg 43%
14:00 +36°C° 0 mm 5 mps 748 mmHg 45%
15:00 +35°C° 0 mm 5 mps 748 mmHg 47%
16:00 +34°C° 0 mm 4 mps 748 mmHg 50%
17:00 +33°C° 0 mm 4 mps 748 mmHg 52%
18:00 +30°C° 0 mm 3 mps 748 mmHg 61%
19:00 +28°C° 0 mm 2 mps 749 mmHg 69%
20:00 +26°C° 0 mm 1 mps 749 mmHg 78%
21:00 +25°C° 0 mm 1 mps 749 mmHg 78%
22:00 +25°C° 0 mm 1 mps 749 mmHg 78%
23:00 +24°C° 0 mm 1 mps 749 mmHg 78%

18 August, Tuesday

Time Temperature Precipitation Wind Pressure Humidity
00:00 +24°C° 0 mm 1 mps 749 mmHg 79%
01:00 +24°C° 0 mm 2 mps 749 mmHg 80%
02:00 +24°C° 0 mm 2 mps 749 mmHg 80%
03:00 +24°C° 0 mm 2 mps 749 mmHg 82%
04:00 +24°C° 0 mm 2 mps 749 mmHg 83%
05:00 +24°C° 0 mm 2 mps 749 mmHg 84%
06:00 +25°C° 0 mm 3 mps 749 mmHg 78%
07:00 +27°C° 0 mm 3 mps 749 mmHg 71%
08:00 +29°C° 0 mm 3 mps 750 mmHg 65%
09:00 +30°C° 0 mm 3 mps 749 mmHg 58%
10:00 +33°C° 0 mm 4 mps 749 mmHg 51%
11:00 +35°C° 0 mm 4 mps 749 mmHg 44%
12:00 +34°C° 0 mm 5 mps 749 mmHg 45%
13:00 +34°C° 0 mm 5 mps 748 mmHg 46%
14:00 +34°C° 0 mm 5 mps 748 mmHg 47%
15:00 +34°C° 0 mm 5 mps 748 mmHg 49%
16:00 +33°C° 0 mm 4 mps 748 mmHg 52%
17:00 +32°C° 0 mm 4 mps 748 mmHg 55%
18:00 +29°C° 0 mm 3 mps 748 mmHg 63%
19:00 +27°C° 0 mm 2 mps 748 mmHg 72%
20:00 +25°C° 0 mm 1 mps 749 mmHg 80%
21:00 +25°C° 0 mm 1 mps 749 mmHg 80%
22:00 +25°C° 0 mm 1 mps 749 mmHg 80%
23:00 +24°C° 0 mm 1 mps 749 mmHg 80%

19 August, Wednesday

Time Temperature Precipitation Wind Pressure Humidity
00:00 +24°C° 0 mm 1 mps 749 mmHg 81%
01:00 +24°C° 0 mm 1 mps 748 mmHg 82%
02:00 +23°C° 0 mm 1 mps 748 mmHg 82%
03:00 +23°C° 0 mm 2 mps 748 mmHg 83%
04:00 +23°C° 0 mm 2 mps 748 mmHg 84%
05:00 +24°C° 0 mm 2 mps 748 mmHg 85%
06:00 +25°C° 0 mm 2 mps 749 mmHg 78%
07:00 +27°C° 0 mm 3 mps 749 mmHg 71%
08:00 +29°C° 0 mm 3 mps 749 mmHg 64%
09:00 +30°C° 0 mm 3 mps 749 mmHg 58%
10:00 +33°C° 0 mm 4 mps 749 mmHg 52%
11:00 +35°C° 0 mm 5 mps 749 mmHg 46%
12:00 +34°C° 0 mm 5 mps 748 mmHg 47%
13:00 +34°C° 0 mm 5 mps 748 mmHg 48%
14:00 +34°C° 0 mm 5 mps 748 mmHg 49%
15:00 +33°C° 0 mm 5 mps 748 mmHg 53%
16:00 +33°C° 0 mm 4 mps 748 mmHg 57%
17:00 +32°C° 0 mm 4 mps 747 mmHg 60%
18:00 +29°C° 0 mm 3 mps 748 mmHg 69%
19:00 +27°C° 0 mm 2 mps 748 mmHg 77%
20:00 +26°C° 0 mm 1 mps 748 mmHg 85%
21:00 +25°C° 0 mm 1 mps 748 mmHg 85%
22:00 +25°C° 0 mm 1 mps 748 mmHg 85%
23:00 +25°C° 0 mm 1 mps 748 mmHg 85%
Show more